Location: Le Rocchette
(44.3500°N, 7.8333°E)
Time: 21:47:52
(UTC+00:00)

BREEZE-M DEB (TANK) - Pass Details

Date: 17 November 2019
Orbit: 328 x 16736 km, 49.5° (Epoch: 10 December)

Event Time Altitude Azimuth Distance (km) Brightness Sun altitude
Exits shadow 05:05:32 25° 252° (WSW) 953 3.5 -14.5°
Maximum altitude 05:06:42 34° 207° (SSW) 882 3.7 -14.3°
Drops below altitude 10° 05:11:48 10° 142° (SE) 2,988 7.3 -13.4°
Sets 05:16:57 0° 136° (SE) 5,395 8.9 -12.5°
